Home   Weather   Erie   Past weeks

Flag for USA Past Weather in Erie, Pennsylvania, USA — Yesterday and Last 2 Weeks

Now
56 °F

Overcast.


Feels Like: 56 °F
Forecast: 45 / 53 °F
Wind: 3 mph from Southeast

Location: Erie International Airport

Current Time: Jan 22, 2017 at 11:31:15 am

Latest Report: Jan 22, 2017 at 10:51 am


Visibility: 10 mi

Pressure: 29.68 "Hg

Humidity: 77%

Dew Point: 49 °F

Location of ErieLocation

Past Weather in Erie — Graph

°F

Erie Temperature Yesterday

Maximum temperature yesterday: 65 °F (at 1:51 pm)
Minimum temperature yesterday: 44 °F (at 3:23 am)
Average temperature yesterday: 51 °F

High & Low Weather Summary for the Past Weeks

 TemperatureHumidityPressure
High65 °F (Jan 21, 1:51 pm)97% (Jan 12, 10:58 am)30.77 "Hg (Jan 12, 10:58 am)
Low11 °F (Jan 7, 9:00 am)39% (Jan 16, 12:51 pm)29.61 "Hg (Jan 22, 6:51 am)
Average34 °F78%30.13 "Hg
* Reported Jan 7 9:00 am — Jan 22 9:51 am, Erie, Weather by CustomWeather, © 2017

Note: Actual official high and low records may vary slightly from our data, if they occured in-between our weather recording intervals... More about our weather records

Advertising

Erie Weather History for the Previous 24 Hours

Scroll right to see more
 ConditionsComfort  
Time TempWeatherWind HumidityBarometerVisibility
9:51 am
Sun, Jan 22
51 °FScattered clouds.No wind86%29.68 "Hg7 mi
8:51 am48 °FBroken clouds.No wind89%29.66 "Hg8 mi
7:51 am48 °FOvercast.No wind89%29.65 "Hg10 mi
6:51 am52 °FMostly cloudy.No wind83%29.61 "Hg10 mi
5:51 am53 °FOvercast.6 mph80%29.63 "Hg10 mi
4:51 am50 °FOvercast.3 mph86%29.65 "Hg10 mi
3:51 am48 °FOvercast.No wind89%29.66 "Hg10 mi
2:51 am48 °FOvercast.No wind93%29.66 "Hg10 mi
1:51 am53 °FPassing clouds.No wind80%29.66 "Hg10 mi
12:51 am51 °FClear.8 mph83%29.66 "Hg10 mi
11:51 pm
Sat, Jan 21
46 °FClear.No wind83%29.67 "Hg10 mi
10:51 pm51 °FClear.No wind77%29.67 "Hg10 mi
9:51 pm52 °FPassing clouds.No wind72%29.66 "Hg10 mi
8:51 pm58 °FOvercast.6 mph75%29.67 "Hg10 mi
7:51 pm58 °FOvercast.6 mph75%29.69 "Hg10 mi
6:51 pm58 °FClear.7 mph75%29.68 "Hg10 mi
5:51 pm60 °FClear.8 mph69%29.67 "Hg10 mi
4:51 pm62 °FSunny.8 mph65%29.66 "Hg10 mi
3:51 pm63 °FScattered clouds.12 mph63%29.67 "Hg10 mi
2:51 pm65 °FPartly sunny.14 mph54%29.66 "Hg10 mi
1:51 pm65 °FSunny.15 mph61%29.66 "Hg10 mi
12:51 pm63 °FSunny.14 mph63%29.68 "Hg10 mi
11:51 am60 °FSunny.17 mph69%29.71 "Hg10 mi
Weather by CustomWeather, © 2017

See weather overviewHow to use our weather pages